7 * 24
多渠道服务支持
Hi!有什么问题可以问我哦~
STARLINK-35438是美国太空探索技术公司(SpaceX)星链(Starlink)项目的低地球轨道通信卫星,于2025年11月6日发射入轨。作为星链卫星互联网星座的组成部分,它依托低轨部署优势,可为全球偏远地区、特殊场景提供高速低延迟的宽带互联网接入,助力星链实现全球无缝网络覆盖,推动全球互联基础设施建设,同时也持续推动着卫星通信领域的技术迭代与行业变革。
美国
(US)
| 数据来源 | 国际轨道数据 |
| 星历时间: | 2026-04-03T13:55:00+0800 1天前 查看轨道信息 |
| 半长轴: | 6860.997km |
| 偏心率: | 0.000067 |
| 轨道倾角: | 43.001° |
| 近地点辐角 | 267.712° |
| 升交点赤经 | 73.511° |
| 平近点角 | 92.366° |
| 近地点: | 482.4km |
| 远地点: | 483.32km |
| 周期: | 94.263分钟 |
| 每日圈数: | 15.276434 |